Weather in Chinar

Russia / Republic of Dagestan     42°06′25″N   48°08′38″E
temp.,
°C
wind,
m/s
gust,
m/s
humid.,
%
clouds,
%
prec.,
mm/h
press.,
hPa
HPBL,
m
19 april, mon
mon1900:00+13sse1176100 0.0 101614
03:00+12sw007998 0.0 101611
06:00+14nnw1173100 0.0 101716
09:00+17ene115622 0.0 1017496
12:00+19ese334792 0.0 1016658
15:00+18ese3344100 0.0 1016457
18:00+15se345721 0.0 1016153
21:00+13s336268 0.0 101656
20 april, tue
tue2000:00+14s3359100 0.0 101527
03:00+13s4562100 0.0 101358
06:00+13s3361100 0.0 101472
09:00+15sse2361100 0.0 1014236
12:00+18ese335526 0.0 1011446
15:00+18se556254 0.0 1009404
18:00+14se2377100 0.0 1008112
21:00+14ese1177100 0.0 100738
21 april, wed
wed2100:00+14nnw447520 0.0 100753
03:00+14nw61171100 0.0 1009314
06:00+14nw51083100 0.0 1013465
09:00+13n578095 0.0 1016334
12:00+17n78618 0.0 1016766
15:00+17n9105727 0.0 1016866
18:00+14nnw3579100 1.4 1018364
21:00+12nnw338333 1.4 101962
22 april, thu
thu2200:00+12nw118229 0.0 101958
03:00+11se118764 0.0 102043
06:00+12ssw228671 0.0 1021125
09:00+15e216955 0.0 1021589
12:00+16ne326016 0.0 1020744
15:00+16nne455785 0.0 1021875
18:00+15nnw4764100 0.0 1022665
21:00+14nw2466100 0.0 1022529
23 april, fri
fri2300:00+14nw346650 0.0 1020284
03:00+11nnw33780 0.0 102138
06:00+12nnw237713 0.0 1021149
09:00+13nne457498 0.1 1022666
12:00+13n347288 0.1 1021667
15:00+14n246764 0.1 1021758
18:00+15n126426 0.0 1021237
21:00+11n11825 0.0 102114